STARLINK-4436, 53479

Orbit data source: Space-Track

STARLINK-4436, 53479 is a payload satellite owned by SpaceX/Seattle (US) in SSO that was launched on Fri, 12 Aug 2022 UTC via an FALCON 9 launch vehicle from the Air Force Western Test Range (AFWTR). Payload-class satellites include a variety of spacecraft equipped with specific instruments for various scientific and technological missions. These include communications satellites like Starlink; space stations such as the ISS; scientific satellites like the Hubble; Earth observation satellites from companies like Planet Labs, Umbra, and HawkEye 360; GPS; miniature CubeSats for education and research; and military/defense satellites.

Loading next visibility...
Identifier
53479, 2022-099Q
Orbit
SSO
Country
Flag of USUS
Related business
Manufacturer
SpaceX/Seattle
Mission
Operational Commercial Communications
Bus & Motor
STARLINK, Unknown motor
Mass
300 kg wet, ~275 kg dry
Launch date (UTC)
2022-08-12 (3 years ago)
Launch vehicle
FALCON 9
Launch site
Air Force Western Test Range (AFWTR)
Object type
Payload
Rocket body
Debris
Shape & HBR
Box + 1 Pan, 10.1 m
Radar Cross Section
13.562 m², Large (>1 m²)

Expand to show TLE details & history
Last TLE update: 11 hours ago

TLE from 11 hours ago
0 STARLINK-4436
1 53479U 22099Q   25346.90809002  .00000125  00000-0  12846-4 0  9991
2 53479  97.6022 105.7502 0001370  86.2014 273.9369 15.05643230182995
Epoch: 2025-12-12T21:47Z
TLE epoch observation values (Epoch: 2025-12-12T21:47:38.977Z)
Latitude
-0.00008°
Longitude
56.99484°
Altitude
552.532 km
Speed
7.586 km/s
True Right ascension
07h 03m 00s
True Declination
0° 00' 00"
Sunlit
Object was in full shadow at epoch
Visualization orbit readout
Latitude
Unknown
Longitude
Unknown
Altitude
Unknown
Speed
Unknown
Apparent Right ascension
Unknown
Apparent Declination
Unknown
Sunlit
N/A
Visualization observer readout
Local Sidereal Time
07:34:22
Azimuth
Unknown
Elevation
Unknown
Doppler factor
Unknown
Orbital elements
Apogee altitude
547.474 km
Perigee altitude
545.577 km
Semi-major axis
6,924.662 km
Eccentricity
0.00014
Inclination
97.6022°
RAAN
105.7502°
Arg. of periapsis
86.2014°
True anomaly
273.92124°
Mean anomaly
273.9369°
Eccentric anomaly
273.92907°
Mean motion
3.76656 °/min
Orbital period
95.58 mins
BSTAR
0.000012846
Loading maneuver chart data...
Computing Atmospheric mass density...
Loading historical data...
Loading historical data...
Loading historical data...
Loading historical data...
Loading historical data...
Loading historical data...
Loading historical data...

Documentation

Showing up to 5 results
|